Waarnemingen

Advertentie
Mijn weer
Grenoble/St.Geoirs, Frankrijk (7486): temperatuur & dauwpunt: 17.09.2019 07:00:00 - 23.09.2019 07:00:00 (CEST)Grenoble/St.Geoirs, Frankrijk (7486): temperatuur 5cm: 17.09.2019 07:00:00 - 23.09.2019 07:00:00 (CEST)Grenoble/St.Geoirs, Frankrijk (7486): temperatuur -20cm & temperatuur -100cm: 17.09.2019 07:00:00 - 23.09.2019 07:00:00 (CEST)Grenoble/St.Geoirs, Frankrijk (7486): windsnelheid & windstoten: 17.09.2019 07:00:00 - 23.09.2019 07:00:00 (CEST)Grenoble/St.Geoirs, Frankrijk (7486): windrichting: 17.09.2019 07:00:00 - 23.09.2019 07:00:00 (CEST)Grenoble/St.Geoirs, Frankrijk (7486): luchtdruk: 17.09.2019 07:00:00 - 23.09.2019 07:00:00 (CEST)Grenoble/St.Geoirs, Frankrijk (7486): zicht: 17.09.2019 07:00:00 - 23.09.2019 07:00:00 (CEST)Grenoble/St.Geoirs, Frankrijk (7486): Zonneschijnduur: 17.09.2019 07:00:00 - 23.09.2019 07:00:00 (CEST)Grenoble/St.Geoirs, Frankrijk (7486): neerslag: 17.09.2019 07:00:00 - 23.09.2019 07:00:00 (CEST)
Datum & Tijd tt [°C] td [°C] tt 5cm [°C] tt -20cm [°C] tt -100cm [°C] ff [km/u] ff [kn] fx [km/u] fx [kn] dd ppp [hPa] vv [km] sd [min] rr [mm]
23.09.2019 07:00:00 10,3 9,7 6,2 18,6 18,1 0 0 6 3 N 1019,0 20 0 0,0
23.09.2019 06:00:00 10,9 10,6 6,8 18,7 18,1 4 2 5 3 OZO 1018,3 0,6 0 0,0
23.09.2019 05:00:00 11,5 10,9 8,2 18,8 18,1 0 0 9 5 N 1018,0 59 0 0,2
23.09.2019 04:00:00 12,3 11,5 9,6 18,9 18,1 5 3 10 5 NO 1017,8 40 0 0,0
23.09.2019 03:00:00 13,3 12,5 12,5 19,1 18,1 5 3 13 7 NNO 1017,7 60 0 0,0
23.09.2019 02:00:00 13,5 12,7 12,9 19,2 18,1 8 4 14 8 ONO 1018,1 60 0 0,0
23.09.2019 01:00:00 - - - - - - - - - - - - - -
23.09.2019 00:00:00 13,9 13,4 13,4 19,6 18,1 - - - - - 1017,3 6 0 4,4
22.09.2019 23:00:00 13,9 13,4 13,5 19,7 18,1 - - - - - 1017,3 2,6 0 10,1
22.09.2019 22:00:00 14,1 13,6 13,6 19,7 18,1 7 4 - - Z 1016,5 2,1 0 12,6
22.09.2019 21:00:00 14,3 13,3 13,6 19,6 18,1 21 12 40 21 WNW 1014,8 3,2 0 6,7
22.09.2019 20:00:00 14,9 13,4 14,1 19,5 18,1 29 16 54 29 NW 1013,6 1,2 0 2,8
22.09.2019 19:00:00 21,1 15,2 21,0 19,4 18,1 18 10 39 21 ZW 1010,5 29 1 0,0
22.09.2019 18:00:00 22,5 15,3 23,2 19,2 18,1 23 13 46 25 ZW 1010,2 24 0 0,0
22.09.2019 17:00:00 23,1 14,9 23,7 19,1 18,1 27 15 51 28 ZW 1010,0 26 15 0,0
22.09.2019 16:00:00 25,3 14,7 25,6 18,9 18,1 28 15 46 25 ZZW 1009,3 36 23 0,0
22.09.2019 15:00:00 24,5 14,3 26,2 18,9 18,1 19 10 43 23 ZZW 1009,6 36 14 0,0
22.09.2019 14:00:00 25,8 15,2 25,8 18,8 18,1 26 14 44 24 ZZW 1009,6 19 45 0,0
22.09.2019 13:00:00 24,8 14,3 26,1 18,8 18,1 16 9 32 17 ZW 1010,2 27 42 0,0
22.09.2019 12:00:00 23,9 14,3 26,2 18,8 18,1 16 8 28 15 ZZW 1010,5 24 56 0,0
22.09.2019 11:00:00 21,6 14,3 20,5 18,9 18,1 5 3 13 7 ZZW 1011,4 39 11 0,0
22.09.2019 10:00:00 18,6 13,9 16,4 19,0 18,1 6 4 16 8 ZZO 1012,4 26 0 0,0
22.09.2019 09:00:00 16,5 14,1 15,8 19,0 18,1 11 6 21 11 O 1012,6 24 4 0,0
22.09.2019 08:00:00 15,4 13,8 13,1 19,1 18,1 14 8 20 11 O 1012,5 18 11 0,0
22.09.2019 07:00:00 15,0 13,2 13,0 19,2 18,1 4 2 13 7 O 1012,8 21 0 0,0
22.09.2019 06:00:00 15,0 12,9 13,2 19,3 18,1 9 5 16 9 ONO 1012,8 20 0 0,0
22.09.2019 05:00:00 14,1 12,5 12,4 19,3 18,1 11 6 17 9 O 1013,3 17 0 0,0
22.09.2019 04:00:00 15,2 13,2 13,4 19,4 18,1 6 4 19 10 NO 1013,3 17 0 0,0
22.09.2019 03:00:00 15,1 13,1 13,7 19,5 18,1 12 6 21 11 O 1013,9 19 0 0,0
22.09.2019 02:00:00 15,7 13,4 14,2 19,6 18,1 13 7 18 10 O 1013,7 22 0 0,0
22.09.2019 01:00:00 16,8 13,3 15,1 19,6 18,1 9 5 14 7 ONO 1013,2 24 0 0,0
22.09.2019 00:00:00 15,9 13,2 12,4 19,6 18,2 9 5 12 7 O 1013,7 23 0 0,0
21.09.2019 23:00:00 16,6 12,9 13,7 19,6 18,1 4 2 9 5 NO 1013,7 29 0 0,0
21.09.2019 22:00:00 17,8 13,3 15,9 19,6 18,1 2 1 9 5 N 1013,6 36 0 0,0
21.09.2019 21:00:00 19,1 13,5 18,3 19,5 18,1 6 4 15 8 ZZW 1014,1 37 0 0,0
21.09.2019 20:00:00 19,7 12,9 18,5 19,4 18,2 8 4 19 11 Z 1014,1 45 0 0,0
21.09.2019 19:00:00 20,6 12,3 20,3 19,3 18,2 16 9 41 22 ZZW 1014,1 37 0 0,0
21.09.2019 18:00:00 22,3 11,7 22,7 19,1 18,1 22 12 41 22 ZZW 1013,4 30 0 0,0
21.09.2019 17:00:00 23,0 11,1 23,8 19,0 18,2 18 10 31 17 ZW 1013,8 45 0 0,0
21.09.2019 16:00:00 24,6 10,8 26,6 18,8 18,2 20 11 35 19 ZW 1013,9 29 11 0,0
21.09.2019 15:00:00 26,4 10,9 28,0 18,7 18,1 9 5 23 12 ZZO 1014,1 19 54 0,0
21.09.2019 14:00:00 24,0 11,0 25,7 18,7 18,2 11 6 28 15 ZZW 1015,7 30 11 0,0
21.09.2019 13:00:00 24,6 11,2 26,9 18,6 18,2 10 5 20 11 ZW 1016,4 33 46 0,0
21.09.2019 12:00:00 23,2 11,9 25,7 18,7 18,1 6 3 17 9 ONO 1017,1 23 57 0,0
21.09.2019 11:00:00 20,8 11,7 22,4 18,7 18,1 11 6 21 11 O 1017,7 20 60 0,0
21.09.2019 10:00:00 19,1 11,4 17,8 18,8 18,2 14 8 20 11 O 1018,3 19 60 0,0
21.09.2019 09:00:00 16,0 11,2 13,6 18,9 18,2 14 8 22 12 O 1018,8 22 60 0,0
21.09.2019 08:00:00 13,6 10,8 11,7 19,0 18,2 16 8 21 11 ONO 1019,3 20 15 0,0
21.09.2019 07:00:00 12,5 10,9 10,6 19,1 18,2 15 8 18 10 ONO 1019,5 21 0 0,0
21.09.2019 06:00:00 12,3 10,5 11,0 19,2 18,2 14 7 18 10 O 1019,9 19 0 0,0
21.09.2019 05:00:00 13,7 11,6 12,0 19,2 18,2 11 6 15 8 O 1020,0 19 0 0,0
21.09.2019 04:00:00 16,2 13,1 13,1 19,3 18,2 9 5 13 7 ONO 1019,4 22 0 0,0
21.09.2019 03:00:00 17,7 13,0 13,3 19,3 18,2 2 1 14 8 NO 1019,4 25 0 0,0
21.09.2019 02:00:00 18,8 12,8 17,5 19,3 18,2 11 6 24 13 ZW 1019,2 33 0 0,0
21.09.2019 01:00:00 19,8 12,5 19,0 19,4 18,2 11 6 34 18 ZZW 1019,0 32 0 0,0
21.09.2019 00:00:00 20,9 13,8 18,3 19,4 18,2 17 9 28 15 ZZW 1019,0 29 0 0,0
20.09.2019 23:00:00 19,0 13,4 17,4 19,4 18,3 11 6 17 9 O 1019,1 22 0 0,0
20.09.2019 22:00:00 18,7 14,0 16,0 19,3 18,2 12 6 18 10 ONO 1018,8 20 0 0,0
20.09.2019 21:00:00 18,3 13,4 15,7 19,1 18,2 11 6 18 10 O 1019,0 18 0 0,0
20.09.2019 20:00:00 21,7 12,3 16,5 18,9 18,2 10 6 15 8 ZO 1018,2 30 11 0,0
20.09.2019 19:00:00 24,7 12,0 25,3 18,7 18,2 11 6 18 10 Z 1017,8 19 49 0,0
20.09.2019 18:00:00 25,7 12,5 28,6 18,5 18,2 9 5 23 12 Z 1017,7 28 60 0,0
20.09.2019 17:00:00 26,5 12,5 30,8 18,3 18,2 13 7 23 12 Z 1017,9 35 60 0,0
20.09.2019 16:00:00 26,1 12,9 30,0 18,1 18,2 11 6 27 15 WZW 1018,6 29 60 0,0
20.09.2019 15:00:00 25,5 13,4 31,2 18,0 18,2 14 8 29 15 Z 1019,4 28 60 0,0
20.09.2019 14:00:00 24,4 12,0 29,5 17,9 18,3 8 4 20 11 ZZW 1020,0 27 60 0,0
20.09.2019 13:00:00 22,2 10,3 25,5 17,9 18,3 10 5 29 16 ONO 1020,9 26 60 0,0
20.09.2019 12:00:00 20,1 9,3 22,6 18,0 18,3 14 8 27 15 ONO 1021,6 22 60 0,0
20.09.2019 11:00:00 18,0 8,5 19,3 18,1 18,3 19 10 30 16 ONO 1022,4 20 60 0,0
20.09.2019 10:00:00 16,5 8,5 15,5 18,2 18,3 19 11 25 14 O 1022,4 17 60 0,0
20.09.2019 09:00:00 11,4 7,9 8,8 18,4 18,3 5 3 9 5 WZW 1023,0 31 60 0,0
20.09.2019 08:00:00 8,1 6,6 4,8 18,5 18,3 3 2 9 5 ZZO 1023,1 11 16 0,0
20.09.2019 07:00:00 7,6 5,6 3,7 18,7 18,3 5 3 10 5 O 1022,9 23 0 0,0
20.09.2019 06:00:00 7,8 5,4 4,7 18,8 18,3 2 1 7 4 O 1023,0 25 0 0,0
20.09.2019 05:00:00 7,8 5,9 4,0 19,0 18,3 6 4 9 5 O 1023,2 26 0 0,0
20.09.2019 04:00:00 7,9 5,2 4,5 19,1 18,3 5 3 9 5 OZO 1023,6 27 0 0,0
20.09.2019 03:00:00 8,9 6,3 4,3 19,2 18,3 5 3 8 4 ZO 1023,4 27 0 0,0
20.09.2019 02:00:00 9,3 6,4 5,5 19,3 18,3 5 3 11 6 OZO 1023,4 28 0 0,0
20.09.2019 01:00:00 10,5 6,3 5,5 19,5 18,3 6 3 10 5 ZO 1023,1 28 0 0,0
20.09.2019 00:00:00 11,0 6,1 7,0 19,5 18,3 6 3 16 9 ZZO 1023,0 28 0 0,0
19.09.2019 23:00:00 13,3 5,9 8,1 19,5 18,3 9 5 22 12 OZO 1022,2 31 0 0,0
19.09.2019 22:00:00 13,3 5,4 7,1 19,5 18,3 7 4 13 7 NNO 1022,0 30 0 0,0
19.09.2019 21:00:00 15,5 5,7 13,0 19,4 18,3 8 4 18 10 NNO 1021,3 28 0 0,0
19.09.2019 20:00:00 17,5 7,0 15,1 19,3 18,3 11 6 18 10 NNW 1020,2 28 13 0,0
19.09.2019 19:00:00 19,9 7,9 20,9 19,2 18,3 13 7 27 14 NNW 1019,5 29 48 0,0
19.09.2019 18:00:00 20,6 8,6 23,7 19,0 18,3 16 9 31 17 NNW 1019,5 23 60 0,0
19.09.2019 17:00:00 20,7 8,3 25,6 18,8 18,3 17 9 34 18 N 1019,2 25 60 0,0
19.09.2019 16:00:00 20,4 8,1 25,9 18,7 18,3 18 10 34 19 NNW 1019,4 20 60 0,0
19.09.2019 15:00:00 20,1 8,1 24,9 18,6 18,3 15 8 34 19 N 1019,7 25 60 0,0
19.09.2019 14:00:00 19,1 7,8 19,4 18,6 18,3 19 10 35 19 N 1020,1 27 58 0,0
19.09.2019 13:00:00 17,8 7,2 19,7 18,6 18,3 23 12 41 22 N 1020,5 27 51 0,0
19.09.2019 12:00:00 17,4 7,2 21,3 18,7 18,3 20 11 29 16 N 1020,8 29 60 0,0
19.09.2019 11:00:00 15,9 7,1 17,9 18,8 18,3 10 6 22 12 NNW 1020,9 24 60 0,0
19.09.2019 10:00:00 13,7 6,1 15,2 18,9 18,3 6 4 16 9 N 1021,3 20 60 0,0
19.09.2019 09:00:00 11,9 5,3 11,0 19,1 18,3 9 5 23 12 N 1021,3 30 60 0,0
19.09.2019 08:00:00 10,6 5,1 6,3 19,3 18,3 13 7 21 11 NNW 1021,3 29 17 0,0
19.09.2019 07:00:00 9,5 5,7 7,5 19,4 18,3 5 3 10 5 ZW 1020,8 26 0 0,0
19.09.2019 06:00:00 9,8 6,1 6,1 19,5 18,3 3 1 11 6 ZZW 1020,8 27 0 0,0
19.09.2019 05:00:00 10,5 6,6 6,8 19,6 18,3 8 4 11 6 W 1020,8 27 0 0,0
19.09.2019 04:00:00 11,1 6,4 6,9 19,8 18,3 3 2 9 5 Z 1020,8 27 0 0,0
19.09.2019 03:00:00 12,0 7,1 8,7 19,9 18,3 3 2 7 4 ZZW 1020,7 28 0 0,0
19.09.2019 02:00:00 12,6 9,8 8,4 19,9 18,3 4 2 10 5 ZW 1020,3 26 0 0,0
19.09.2019 01:00:00 12,9 9,9 8,7 20,0 18,3 3 2 9 5 N 1020,2 19 0 0,0
19.09.2019 00:00:00 13,9 10,3 10,4 20,1 18,3 4 2 9 5 ZZO 1020,2 19 0 0,0
18.09.2019 23:00:00 13,8 10,2 9,6 20,1 18,3 4 2 10 5 ZZO 1020,0 22 0 0,0
18.09.2019 22:00:00 14,9 10,3 9,9 20,1 18,3 6 4 11 6 OZO 1019,5 22 0 0,0
18.09.2019 21:00:00 16,9 10,7 14,2 20,0 18,3 9 5 18 10 N 1018,8 23 0 0,0
18.09.2019 20:00:00 18,9 10,7 17,5 19,9 18,3 13 7 30 16 NNW 1017,9 24 19 0,0
18.09.2019 19:00:00 20,5 11,4 21,5 19,8 18,3 16 8 29 16 NNW 1017,2 21 48 0,0
18.09.2019 18:00:00 21,2 11,5 24,7 19,6 18,3 19 11 32 18 N 1017,0 21 60 0,0
18.09.2019 17:00:00 22,0 11,4 27,1 19,5 18,3 18 10 29 16 N 1016,8 23 60 0,0
18.09.2019 16:00:00 21,2 11,2 23,0 19,3 18,3 17 9 37 20 N 1017,4 26 44 0,0
18.09.2019 15:00:00 21,9 11,0 22,9 19,2 18,3 19 11 36 19 NW 1017,2 26 30 0,0
18.09.2019 14:00:00 20,7 11,1 23,0 19,2 18,3 18 10 36 20 N 1017,4 23 41 0,0
18.09.2019 13:00:00 20,9 11,5 24,3 19,2 18,3 19 11 29 16 N 1017,2 25 56 0,0
18.09.2019 12:00:00 20,4 11,6 24,6 19,3 18,3 15 8 33 18 N 1017,2 18 60 0,0
18.09.2019 11:00:00 18,7 11,7 18,2 19,4 18,3 9 5 19 10 N 1017,8 25 30 0,0
18.09.2019 10:00:00 15,4 10,6 15,7 19,5 18,3 8 4 18 10 N 1018,5 19 27 0,0
18.09.2019 09:00:00 14,5 10,7 13,4 19,7 18,3 6 3 11 6 NNO 1018,6 40 28 0,0
18.09.2019 08:00:00 12,5 10,7 8,2 19,8 18,3 3 2 11 6 ZZW 1018,6 28 18 0,0
18.09.2019 07:00:00 11,8 9,5 8,0 19,9 18,3 2 1 15 8 ONO 1018,5 39 0 0,0
18.09.2019 06:00:00 12,9 9,9 8,5 20,1 18,3 4 2 13 7 W 1018,1 37 0 0,0
18.09.2019 05:00:00 13,4 10,6 10,2 20,2 18,3 7 4 14 8 NW 1017,9 34 0 0,0
18.09.2019 04:00:00 13,9 11,6 9,2 20,3 18,3 11 6 16 8 NO 1017,5 28 0 0,0
18.09.2019 03:00:00 13,5 11,4 9,2 20,5 18,3 3 2 10 5 O 1017,9 26 0 0,0
18.09.2019 02:00:00 14,3 10,7 10,1 20,6 18,2 2 1 7 4 W 1017,9 30 0 0,0
18.09.2019 01:00:00 16,1 10,8 11,6 20,6 18,3 4 2 11 6 ZW 1017,4 31 0 0,0
18.09.2019 00:00:00 17,8 11,1 13,0 20,7 18,2 6 4 15 8 WZW 1016,9 34 0 0,0
17.09.2019 23:00:00 18,2 10,3 14,5 20,7 18,3 0 0 14 7 N 1016,7 36 0 0,0
17.09.2019 22:00:00 19,2 10,2 14,2 20,7 18,2 5 3 13 7 W 1016,6 39 0 0,0
17.09.2019 21:00:00 21,9 9,4 18,2 20,6 18,3 3 2 31 17 WNW 1015,9 42 0 0,0
17.09.2019 20:00:00 23,4 5,8 19,9 20,4 18,2 9 5 26 14 ZO 1015,1 46 23 0,0
17.09.2019 19:00:00 25,6 4,7 26,4 20,3 18,2 21 11 34 18 N 1014,7 20 47 0,0
17.09.2019 18:00:00 27,2 5,5 30,1 20,1 18,2 18 10 33 18 N 1014,7 37 60 0,0
17.09.2019 17:00:00 28,0 6,7 32,8 19,9 18,2 17 9 36 19 NNW 1014,9 30 60 0,0
17.09.2019 16:00:00 28,2 8,0 33,9 19,7 18,2 19 10 35 19 NNW 1015,2 16 60 0,0
17.09.2019 15:00:00 28,2 9,0 34,3 19,6 18,2 18 10 28 15 NNW 1015,6 16 60 0,0
17.09.2019 14:00:00 27,7 7,0 32,9 19,5 18,2 16 9 38 20 NNW 1016,1 21 60 0,0
17.09.2019 13:00:00 26,9 12,9 31,5 19,5 18,2 16 9 25 14 NNW 1016,5 27 60 0,0
17.09.2019 12:00:00 25,3 13,5 29,1 19,6 18,2 5 3 12 6 ZW 1017,2 29 60 0,0
17.09.2019 11:00:00 22,5 13,0 25,3 19,7 18,2 4 2 11 6 W 1018,0 30 60 0,0
17.09.2019 10:00:00 20,0 12,5 21,2 19,8 18,2 3 2 10 6 ZW 1018,3 27 60 0,0
17.09.2019 09:00:00 17,1 13,0 14,0 19,9 18,2 2 1 6 4 ZZO 1018,8 25 60 0,0
17.09.2019 08:00:00 13,7 12,3 10,0 20,1 18,2 6 4 8 4 ZO 1019,1 17 20 0,0
17.09.2019 07:00:00 13,1 11,2 10,3 20,2 18,2 5 3 9 5 O 1018,9 16 0 0,0

tt = temperatuur
td = dauwpunt
tt 5cm = temperatuur 5cm
tt -20cm = temperatuur -20cm
tt -100cm = temperatuur -100cm
ff = windsnelheid
fx = windstoten
dd = windrichting
ppp = luchtdruk
vv = zicht
sd = Zonneschijnduur
rr = neerslag

Weerstations in de omgeving